Showing default

HBTSS-SV2, 58955

Orbit data source: Space-Track

HBTSS-SV2, 58955 is a payload satellite owned by MDA (US) in LEO that was launched on Wed, 14 Feb 2024 UTC via an FALCON 9 launch vehicle from the Air Force Eastern Test Range (AFETR). Payload-class satellites include a variety of spacecraft equipped with specific instruments for various scientific and technological missions. These include communications satellites like Starlink; space stations such as the ISS; scientific satellites like the Hubble; Earth observation satellites from companies like Planet Labs, Umbra, and HawkEye 360; GPS; miniature CubeSats for education and research; and military/defense satellites.

Loading next visibility...
Identifier
58955, 2024-028A
Orbit
LEO
Country
Flag of USUS
Related business
Manufacturer
NGIS
Mission
Operational Commercial Early Warn
Bus & Motor
HBT-NG, Unknown motor
Mass
~1,000 kg wet, ~1,000 kg dry
Launch date (UTC)
2024-02-14 (2 years ago)
Launch vehicle
FALCON 9
Launch site
Air Force Eastern Test Range (AFETR)
Object type
Payload
Rocket body
Debris
Shape & HBR
Box + 2 Pan, 1.0 m
Radar Cross Section
1.012 m², Large (>1 m²)

Expand to show TLE details & history
Last TLE update: 14 hours ago

TLE from 14 hours ago
0 HBTSS-SV2
1 58955U 24028A   25259.25558362  .00000045  00000-0  13762-3 0  9998
2 58955  39.9901 222.3549 0018243 111.3087 248.9609 13.70387420 79482
Epoch: 2025-09-16T06:08Z
TLE epoch observation values (Epoch: 2025-09-16T06:08:02.424Z)
Latitude
-0.00002°
Longitude
134.89628°
Altitude
1,002.513 km
Speed
7.35 km/s
True Right ascension
14h 49m 25s
True Declination
0° 00' 00"
Sunlit
Object was in daylight at epoch
Visualization orbit readout
Latitude
Unknown
Longitude
Unknown
Altitude
Unknown
Speed
Unknown
Apparent Right ascension
Unknown
Apparent Declination
Unknown
Sunlit
N/A
Visualization observer readout
Local Sidereal Time
12:40:35
Azimuth
Unknown
Elevation
Unknown
Doppler factor
Unknown
Orbital elements
Apogee altitude
1,013.918 km
Perigee altitude
986.997 km
Semi-major axis
7,378.594 km
Eccentricity
0.00182
Inclination
39.9901°
RAAN
222.3549°
Arg. of periapsis
111.3087°
True anomaly
248.76595°
Mean anomaly
248.9609°
Eccentric anomaly
248.86341°
Mean motion
3.42439 °/min
Orbital period
105.13 mins
BSTAR
0.00013762
Loading maneuver chart data...
Computing Atmospheric mass density...
Loading historical data...
Loading historical data...
Loading historical data...
Loading historical data...
Loading historical data...
Loading historical data...
Loading historical data...
Other satellites on launch #28 in the year 2024 (2024-02-14 UTC)

Documentation

Showing up to 5 results
|